| time (UTC) | temp F | wind direction | speed MPH | gust MPH | rain 1hr in | rain 24hr in | rain mn in | humidity % | barometer mb |
| 20260510114555 | 54 | 51 | 4.0 | 14.0 | 0.00 | 0.00 | 0.00 | 66 | 1017.4 |
| 20260510113054 | 53 | 30 | 4.0 | 12.0 | 0.00 | 0.00 | 0.00 | 69 | 1017.5 |
| 20260510111603 | 54 | 24 | 5.0 | 18.0 | 0.00 | 0.00 | 0.00 | 68 | 1017.6 |
| 20260510110057 | 53 | 327 | 3.0 | 15.0 | 0.00 | 0.00 | 0.00 | 69 | 1017.6 |
| 20260510104553 | 54 | 31 | 7.0 | 17.0 | 0.00 | 0.00 | 0.00 | 68 | 1017.6 |
| 20260510103103 | 53 | 28 | 5.0 | 16.0 | 0.00 | 0.00 | 0.00 | 69 | 1017.6 |
| 20260510101559 | 53 | 348 | 8.0 | 20.0 | 0.00 | 0.00 | 0.00 | 69 | 1017.7 |
| 20260510100054 | 54 | 313 | 8.0 | 18.0 | 0.00 | 0.00 | 0.00 | 69 | 1017.8 |
| 20260510094610 | 53 | 44 | 7.0 | 17.0 | 0.00 | 0.00 | 0.00 | 69 | 1017.7 |
| 20260510093111 | 54 | 58 | 5.0 | 15.0 | 0.00 | 0.00 | 0.00 | 69 | 1017.8 |
| 20260510091557 | 53 | 24 | 6.0 | 14.0 | 0.00 | 0.00 | 0.00 | 71 | 1018.0 |
| 20260510090055 | 54 | 94 | 6.0 | 14.0 | 0.00 | 0.00 | 0.00 | 70 | 1018.2 |
| 20260510084552 | 53 | 33 | 6.0 | 13.0 | 0.00 | 0.00 | 0.00 | 72 | 1018.2 |
| 20260510083105 | 53 | 55 | 6.0 | 14.0 | 0.00 | 0.00 | 0.00 | 73 | 1018.1 |
| 20260510081555 | 53 | 36 | 4.0 | 14.0 | 0.00 | 0.00 | 0.00 | 74 | 1018.2 |
| 20260510080057 | 53 | 329 | 5.0 | 14.0 | 0.00 | 0.00 | 0.00 | 75 | 1018.1 |
| 20260510074602 | 52 | 5 | 5.0 | 17.0 | 0.00 | 0.00 | 0.00 | 75 | 1018.0 |
| 20260510073057 | 52 | 318 | 6.0 | 17.0 | 0.00 | 0.00 | 0.00 | 76 | 1018.1 |
| 20260510071600 | 52 | 5 | 6.0 | 15.0 | 0.00 | 0.00 | 0.00 | 77 | 1018.2 |
| 20260510070053 | 51 | 35 | 7.0 | 16.0 | 0.00 | 0.00 | 0.00 | 80 | 1018.0 |
| 20260510064600 | 51 | 268 | 5.0 | 15.0 | 0.00 | 0.00 | 0.00 | 82 | 1018.1 |
| 20260510063057 | 50 | 352 | 4.0 | 12.0 | 0.00 | 0.00 | 0.00 | 83 | 1017.8 |
| 20260510061603 | 49 | 11 | 6.0 | 13.0 | 0.00 | 0.00 | 0.00 | 84 | 1017.8 |
| 20260510060056 | 49 | 11 | 5.0 | 13.0 | 0.00 | 0.00 | 0.00 | 85 | 1017.8 |
| 20260510054554 | 48 | 360 | 4.0 | 14.0 | 0.00 | 0.00 | 0.00 | 86 | 1017.7 |
| 20260510053059 | 48 | 34 | 4.0 | 11.0 | 0.00 | 0.00 | 0.00 | 86 | 1017.7 |
| 20260510051605 | 48 | 9 | 4.0 | 12.0 | 0.00 | 0.00 | 0.00 | 85 | 1017.7 |
| 20260510050057 | 48 | 21 | 3.0 | 9.0 | 0.00 | 0.00 | 0.00 | 85 | 1017.9 |
| 20260510044609 | 48 | 14 | 3.0 | 10.0 | 0.00 | 0.00 | 0.00 | 85 | 1017.8 |
| 20260510043051 | 48 | 59 | 3.0 | 10.0 | 0.00 | 0.00 | 0.00 | 84 | 1017.8 |
| 20260510041554 | 48 | 27 | 3.0 | 10.0 | 0.00 | 0.00 | 0.00 | 84 | 1017.8 |
| 20260510040058 | 48 | 44 | 4.0 | 12.0 | 0.00 | 0.00 | 0.00 | 84 | 1017.9 |
| 20260510034553 | 49 | 24 | 4.0 | 10.0 | 0.00 | 0.00 | 0.00 | 84 | 1017.8 |
| 20260510033059 | 49 | 15 | 4.0 | 12.0 | 0.00 | 0.00 | 0.00 | 85 | 1018.1 |
| 20260510031554 | 49 | 5 | 5.0 | 11.0 | 0.00 | 0.00 | 0.00 | 85 | 1018.2 |
| 20260510024556 | 49 | 19 | 3.0 | 9.0 | 0.00 | 0.00 | 0.00 | 85 | 1018.1 |
| 20260510023053 | 49 | 360 | 3.0 | 10.0 | 0.00 | 0.00 | 0.00 | 85 | 1018.1 |
| 20260510021600 | 49 | 43 | 3.0 | 11.0 | 0.00 | 0.00 | 0.00 | 85 | 1018.4 |
| 20260510020056 | 49 | 28 | 4.0 | 11.0 | 0.00 | 0.00 | 0.00 | 85 | 1018.5 |
| 20260510014553 | 49 | 55 | 6.0 | 12.0 | 0.00 | 0.00 | 0.00 | 84 | 1018.3 |
| 20260510013054 | 49 | 9 | 3.0 | 8.0 | 0.00 | 0.00 | 0.00 | 84 | 1018.2 |
| 20260510011552 | 49 | 351 | 3.0 | 11.0 | 0.00 | 0.00 | 0.00 | 83 | 1018.1 |
| 20260510010055 | 49 | 42 | 2.0 | 12.0 | 0.00 | 0.00 | 0.00 | 82 | 1018.4 |
| 20260510004553 | 50 | 9 | 1.0 | 8.0 | 0.00 | 0.00 | 0.00 | 81 | 1018.5 |
| 20260510003101 | 50 | 0 | 3.0 | 10.0 | 0.00 | 0.00 | 0.00 | 80 | 1018.5 |
| 20260510001556 | 50 | 43 | 3.0 | 8.0 | 0.00 | 0.00 | 0.00 | 80 | 1018.7 |
| 20260510000058 | 51 | 47 | 4.0 | 13.0 | 0.00 | 0.00 | 0.00 | 79 | 1018.5 |
| 20260509234557 | 51 | 350 | 3.0 | 9.0 | 0.00 | 0.00 | 0.00 | 77 | 1018.5 |
| 20260509233057 | 52 | 13 | 2.0 | 7.0 | 0.00 | 0.00 | 0.00 | 75 | 1018.5 |
| 20260509231604 | 52 | 26 | 2.0 | 6.0 | 0.00 | 0.00 | 0.00 | 74 | 1018.5 |
| 20260509230100 | 52 | 32 | 2.0 | 7.0 | 0.00 | 0.00 | 0.00 | 71 | 1018.5 |
| 20260509224601 | 53 | 352 | 2.0 | 10.0 | 0.00 | 0.00 | 0.00 | 70 | 1018.7 |
| 20260509223058 | 53 | 344 | 3.0 | 7.0 | 0.00 | 0.00 | 0.00 | 69 | 1018.7 |
| 20260509221603 | 53 | 30 | 2.0 | 9.0 | 0.00 | 0.00 | 0.00 | 67 | 1018.4 |
| 20260509220110 | 54 | 17 | 1.0 | 6.0 | 0.00 | 0.00 | 0.00 | 66 | 1018.4 |
| 20260509214600 | 54 | 15 | 2.0 | 7.0 | 0.00 | 0.00 | 0.00 | 64 | 1018.2 |
| 20260509213133 | 55 | 0 | 2.0 | 8.0 | 0.00 | 0.00 | 0.00 | 61 | 1018.3 |
| 20260509211554 | 55 | 49 | 2.0 | 6.0 | 0.00 | 0.00 | 0.00 | 60 | 1018.4 |
| 20260509210106 | 55 | 46 | 1.0 | 8.0 | 0.00 | 0.00 | 0.00 | 57 | 1018.2 |
| 20260509204552 | 56 | 0 | 1.0 | 8.0 | 0.00 | 0.00 | 0.00 | 54 | 1018.3 |
| 20260509203059 | 57 | 35 | 2.0 | 8.0 | 0.00 | 0.00 | 0.00 | 51 | 1018.0 |
| 20260509201559 | 57 | 30 | 3.0 | 8.0 | 0.00 | 0.00 | 0.00 | 50 | 1017.9 |
| 20260509200105 | 58 | 11 | 2.0 | 8.0 | 0.00 | 0.00 | 0.00 | 49 | 1017.8 |
| 20260509194604 | 59 | 53 | 2.0 | 8.0 | 0.00 | 0.00 | 0.00 | 48 | 1017.7 |
| 20260509193102 | 59 | 22 | 2.0 | 8.0 | 0.00 | 0.00 | 0.00 | 47 | 1017.7 |
| 20260509191555 | 60 | 29 | 1.0 | 10.0 | 0.00 | 0.00 | 0.00 | 48 | 1017.4 |
| 20260509190101 | 60 | 0 | 2.0 | 7.0 | 0.00 | 0.00 | 0.00 | 49 | 1017.2 |
| 20260509184555 | 61 | 67 | 4.0 | 10.0 | 0.00 | 0.00 | 0.00 | 47 | 1017.3 |
| 20260509183053 | 62 | 78 | 4.0 | 8.0 | 0.00 | 0.00 | 0.00 | 46 | 1017.3 |
| 20260509181559 | 62 | 57 | 5.0 | 10.0 | 0.00 | 0.00 | 0.00 | 45 | 1017.1 |
| 20260509180054 | 62 | 70 | 3.0 | 12.0 | 0.00 | 0.00 | 0.00 | 46 | 1017.0 |
| 20260509174556 | 63 | 49 | 4.0 | 10.0 | 0.00 | 0.00 | 0.00 | 43 | 1017.2 |
| 20260509173056 | 64 | 83 | 5.0 | 11.0 | 0.00 | 0.00 | 0.00 | 41 | 1017.1 |
| 20260509171553 | 64 | 103 | 6.0 | 11.0 | 0.00 | 0.00 | 0.00 | 39 | 1017.2 |
| 20260509170055 | 65 | 111 | 5.0 | 13.0 | 0.00 | 0.00 | 0.00 | 37 | 1017.2 |
| 20260509164553 | 65 | 126 | 6.0 | 12.0 | 0.00 | 0.00 | 0.00 | 36 | 1017.2 |
| 20260509163054 | 66 | 63 | 5.0 | 12.0 | 0.00 | 0.00 | 0.00 | 36 | 1017.3 |
| 20260509161554 | 66 | 85 | 5.0 | 12.0 | 0.00 | 0.00 | 0.00 | 36 | 1017.4 |
| 20260509160052 | 67 | 69 | 6.0 | 13.0 | 0.00 | 0.00 | 0.00 | 35 | 1017.5 |
| 20260509154556 | 67 | 109 | 8.0 | 12.0 | 0.00 | 0.00 | 0.00 | 35 | 1017.4 |
| 20260509153103 | 68 | 85 | 4.0 | 15.0 | 0.00 | 0.00 | 0.00 | 35 | 1017.3 |
| 20260509151555 | 68 | 96 | 6.0 | 15.0 | 0.00 | 0.00 | 0.00 | 36 | 1017.2 |
| 20260509150055 | 68 | 48 | 7.0 | 16.0 | 0.00 | 0.00 | 0.00 | 34 | 1017.0 |
| 20260509144559 | 68 | 22 | 9.0 | 16.0 | 0.00 | 0.00 | 0.00 | 35 | 1016.8 |
| 20260509143056 | 69 | 59 | 7.0 | 13.0 | 0.00 | 0.00 | 0.00 | 36 | 1016.7 |
| 20260509141552 | 70 | 41 | 7.0 | 15.0 | 0.00 | 0.00 | 0.00 | 37 | 1017.0 |
| 20260509140104 | 69 | 92 | 5.0 | 13.0 | 0.00 | 0.00 | 0.00 | 36 | 1016.9 |
| 20260509134552 | 69 | 38 | 7.0 | 15.0 | 0.00 | 0.00 | 0.00 | 35 | 1017.0 |
| 20260509133056 | 69 | 63 | 2.0 | 10.0 | 0.00 | 0.00 | 0.00 | 35 | 1017.2 |
| 20260509131554 | 69 | 125 | 4.0 | 9.0 | 0.00 | 0.00 | 0.00 | 35 | 1017.4 |
| 20260509130056 | 69 | 136 | 6.0 | 14.0 | 0.00 | 0.00 | 0.00 | 35 | 1017.5 |
| 20260509124557 | 69 | 0 | 2.0 | 9.0 | 0.00 | 0.00 | 0.00 | 33 | 1017.5 |
| 20260509123056 | 69 | 109 | 6.0 | 12.0 | 0.00 | 0.00 | 0.00 | 34 | 1017.6 |
| 20260509121556 | 68 | 0 | 5.0 | 11.0 | 0.00 | 0.00 | 0.00 | 36 | 1017.6 |
| 20260509120112 | 68 | 105 | 3.0 | 8.0 | 0.00 | 0.00 | 0.00 | 38 | 1017.9 |